Location: Guayaquil
(2.1667°S, 79.9000°W)
Time: 02:10:27
(UTC-05:00)

Tiangong 1 - Visible Passes

Search period start: 18 February 2018 00:00
Search period end: 28 February 2018 00:00
Orbit: 249 x 272 km, 42.8° (Epoch: 17 February)

Date Brightness Start Highest point End Pass type
(mag) Time Alt. Az. Time Alt. Az. Time Alt. Az.
20 Feb 3.0 19:53:23 10° SSW 19:53:57 15° SSW 19:53:57 15° SSW visible
21 Feb 1.4 19:47:10 10° SW 19:48:53 43° WSW 19:48:53 43° WSW visible
22 Feb 2.2 19:41:12 10° WSW 19:43:11 24° NW 19:43:41 22° NNW visible
23 Feb 3.4 19:35:58 10° WNW 19:36:39 11° NW 19:37:20 10° NNW visible
27 Feb 4.1 04:53:41 11° E 04:53:41 11° E 04:53:50 10° E visible
